Time,TemperatureF,DewpointF,PressureIn,WindDirection,WindDirectionDegrees,WindSpeedMPH,WindSpeedGustMPH,Humidity,HourlyPrecipIn,Conditions,Clouds,dailyrainin,SoftwareType,DateUTC
2013-01-29 00:03:00,41.6,36.2,30.08,WNW,291,1.0,27.0,81,-0.30,,,0.00,Weather View 32 v70,2013-01-29 08:03:00,
2013-01-29 00:08:00,41.8,36.1,30.08,West,281,2.0,27.0,80,-0.29,,,0.01,Weather View 32 v70,2013-01-29 08:08:00,
2013-01-29 00:13:00,41.6,36.2,30.08,NW,304,6.0,27.0,81,-0.29,,,0.01,Weather View 32 v70,2013-01-29 08:13:00,
2013-01-29 00:18:00,41.6,36.2,30.08,West,269,9.0,21.0,81,-0.29,,,0.01,Weather View 32 v70,2013-01-29 08:18:00,
2013-01-29 00:23:00,41.8,36.1,30.08,West,272,7.0,21.0,80,-0.29,,,0.01,Weather View 32 v70,2013-01-29 08:23:00,
2013-01-29 00:28:00,41.9,35.9,30.08,WNW,294,3.0,21.0,79,-0.29,,,0.01,Weather View 32 v70,2013-01-29 08:28:00,
2013-01-29 00:33:00,41.9,35.9,30.08,WNW,287,4.0,21.0,79,-0.30,,,0.01,Weather View 32 v70,2013-01-29 08:33:00,
2013-01-29 00:37:00,41.9,35.9,30.08,West,276,9.0,21.0,79,-0.29,,,0.01,Weather View 32 v70,2013-01-29 08:37:00,
2013-01-29 00:42:00,41.9,35.9,30.09,West,260,7.0,21.0,79,-0.30,,,0.01,Weather View 32 v70,2013-01-29 08:42:00,
2013-01-29 00:48:00,41.9,35.9,30.08,SSW,200,6.0,21.0,79,-0.30,,,0.01,Weather View 32 v70,2013-01-29 08:48:00,
2013-01-29 00:52:00,42.1,36.1,30.09,WNW,302,5.0,21.0,79,-0.30,,,0.01,Weather View 32 v70,2013-01-29 08:52:00,
2013-01-29 00:57:00,42.2,35.8,30.08,West,263,1.0,21.0,78,-0.30,,,0.01,Weather View 32 v70,2013-01-29 08:57:00,
2013-01-29 01:02:00,42.1,36.1,30.08,NW,307,5.0,21.0,79,0.01,,,0.01,Weather View 32 v70,2013-01-29 09:02:00,
2013-01-29 01:07:00,42.1,36.1,30.08,West,278,0.0,19.0,79,0.00,,,0.01,Weather View 32 v70,2013-01-29 09:07:00,
2013-01-29 01:12:00,41.9,36.2,30.08,North,0,0.0,19.0,80,0.00,,,0.01,Weather View 32 v70,2013-01-29 09:12:00,
2013-01-29 01:17:00,41.8,36.1,30.08,West,269,5.0,19.0,80,0.01,,,0.02,Weather View 32 v70,2013-01-29 09:17:00,
2013-01-29 01:22:00,41.8,36.4,30.08,SW,236,8.0,19.0,81,0.01,,,0.02,Weather View 32 v70,2013-01-29 09:22:00,
2013-01-29 01:27:00,41.9,36.5,30.09,West,276,4.0,19.0,81,0.01,,,0.02,Weather View 32 v70,2013-01-29 09:27:00,
2013-01-29 01:32:00,41.9,36.5,30.08,West,268,4.0,19.0,81,0.01,,,0.02,Weather View 32 v70,2013-01-29 09:32:00,
2013-01-29 01:37:00,41.9,36.5,30.08,WSW,251,5.0,15.0,81,0.01,,,0.02,Weather View 32 v70,2013-01-29 09:37:00,
2013-01-29 01:42:00,41.9,36.5,30.10,WNW,284,0.0,15.0,81,0.01,,,0.02,Weather View 32 v70,2013-01-29 09:42:00,
2013-01-29 01:47:00,41.9,36.5,30.10,WNW,284,0.0,15.0,81,0.01,,,0.02,Weather View 32 v70,2013-01-29 09:47:00,
2013-01-29 01:52:00,41.9,36.5,30.09,SW,234,8.0,15.0,81,0.02,,,0.03,Weather View 32 v70,2013-01-29 09:52:00,
2013-01-29 01:57:00,42.1,36.7,30.09,West,274,6.0,15.0,81,0.02,,,0.03,Weather View 32 v70,2013-01-29 09:57:00,
2013-01-29 02:02:00,42.1,36.7,30.09,WNW,297,2.0,15.0,81,0.02,,,0.03,Weather View 32 v70,2013-01-29 10:02:00,
2013-01-29 02:07:00,42.1,36.7,30.10,WNW,284,0.0,15.0,81,0.02,,,0.03,Weather View 32 v70,2013-01-29 10:07:00,
2013-01-29 02:12:00,42.1,36.7,30.10,WSW,242,7.0,15.0,81,0.02,,,0.03,Weather View 32 v70,2013-01-29 10:12:00,
2013-01-29 02:17:00,42.3,36.6,30.09,SW,227,4.0,15.0,80,0.01,,,0.03,Weather View 32 v70,2013-01-29 10:17:00,
2013-01-29 02:22:00,42.3,36.6,30.09,West,270,3.0,17.0,80,0.01,,,0.03,Weather View 32 v70,2013-01-29 10:22:00,
2013-01-29 02:27:00,42.2,36.8,30.09,WNW,287,2.0,17.0,81,0.01,,,0.03,Weather View 32 v70,2013-01-29 10:27:00,
2013-01-29 02:32:00,42.3,36.9,30.09,WNW,288,3.0,17.0,81,0.01,,,0.03,Weather View 32 v70,2013-01-29 10:32:00,
2013-01-29 02:37:00,42.3,36.9,30.09,WNW,283,2.0,17.0,81,0.01,,,0.03,Weather View 32 v70,2013-01-29 10:37:00,
2013-01-29 02:42:00,42.5,37.1,30.09,West,269,4.0,17.0,81,0.02,,,0.04,Weather View 32 v70,2013-01-29 10:42:00,
2013-01-29 02:47:00,42.5,36.8,30.10,WNW,290,5.0,17.0,80,0.02,,,0.04,Weather View 32 v70,2013-01-29 10:47:00,
2013-01-29 03:03:00,42.5,37.1,30.10,WSW,251,2.0,17.0,81,0.01,,,0.04,Weather View 32 v70,2013-01-29 11:03:00,
2013-01-29 03:16:00,42.6,37.2,30.11,West,267,5.0,17.0,81,0.02,,,0.05,Weather View 32 v70,2013-01-29 11:16:00,
2013-01-29 03:21:00,42.6,37.5,30.11,WSW,258,8.0,12.0,82,0.02,,,0.05,Weather View 32 v70,2013-01-29 11:21:00,
2013-01-29 03:26:00,42.6,37.2,30.11,West,259,8.0,12.0,81,0.03,,,0.06,Weather View 32 v70,2013-01-29 11:26:00,
2013-01-29 03:31:00,42.8,37.4,30.11,NW,304,4.0,12.0,81,0.03,,,0.06,Weather View 32 v70,2013-01-29 11:31:00,
2013-01-29 03:36:00,42.8,37.4,30.11,SW,228,3.0,12.0,81,0.03,,,0.06,Weather View 32 v70,2013-01-29 11:36:00,
2013-01-29 03:40:00,42.8,37.4,30.11,WNW,290,3.0,14.0,81,0.03,,,0.07,Weather View 32 v70,2013-01-29 11:40:00,
2013-01-29 03:41:00,42.8,37.4,30.11,West,276,1.0,14.0,81,0.03,,,0.07,Weather View 32 v70,2013-01-29 11:41:00,
2013-01-29 03:45:00,42.8,37.4,30.12,West,259,4.0,14.0,81,0.03,,,0.07,Weather View 32 v70,2013-01-29 11:45:00,
2013-01-29 03:52:00,42.8,37.7,30.12,West,262,3.0,14.0,82,0.03,,,0.07,Weather View 32 v70,2013-01-29 11:52:00,
2013-01-29 03:57:00,43.2,37.4,30.12,WNW,294,13.0,16.0,80,0.03,,,0.07,Weather View 32 v70,2013-01-29 11:57:00,
2013-01-29 04:02:00,43.3,37.2,30.12,West,272,6.0,21.0,79,0.02,,,0.07,Weather View 32 v70,2013-01-29 12:02:00,
2013-01-29 04:07:00,43.2,37.4,30.12,WNW,298,5.0,21.0,80,0.02,,,0.07,Weather View 32 v70,2013-01-29 12:07:00,
2013-01-29 04:12:00,43.2,37.4,30.13,West,272,5.0,21.0,80,0.02,,,0.07,Weather View 32 v70,2013-01-29 12:12:00,
2013-01-29 04:17:00,43.2,37.4,30.13,West,276,2.0,21.0,80,0.03,,,0.08,Weather View 32 v70,2013-01-29 12:17:00,
2013-01-29 04:22:00,43.2,37.8,30.13,WSW,252,9.0,21.0,81,0.03,,,0.08,Weather View 32 v70,2013-01-29 12:22:00,
2013-01-29 04:27:00,43.2,37.8,30.13,WSW,257,0.0,21.0,81,0.02,,,0.08,Weather View 32 v70,2013-01-29 12:27:00,
2013-01-29 04:32:00,43.3,37.5,30.13,West,264,9.0,21.0,80,0.02,,,0.08,Weather View 32 v70,2013-01-29 12:32:00,
2013-01-29 04:37:00,43.5,37.4,30.13,West,269,5.0,21.0,79,0.02,,,0.09,Weather View 32 v70,2013-01-29 12:37:00,
2013-01-29 04:42:00,43.3,37.5,30.13,West,271,6.0,21.0,80,0.02,,,0.09,Weather View 32 v70,2013-01-29 12:42:00,
2013-01-29 04:47:00,43.3,37.5,30.13,NW,319,0.0,21.0,80,0.02,,,0.09,Weather View 32 v70,2013-01-29 12:47:00,
2013-01-29 04:52:00,43.3,37.5,30.14,West,265,7.0,21.0,80,0.02,,,0.09,Weather View 32 v70,2013-01-29 12:52:00,
2013-01-29 04:57:00,43.5,37.4,30.14,West,262,6.0,21.0,79,0.02,,,0.09,Weather View 32 v70,2013-01-29 12:57:00,
2013-01-29 05:02:00,43.6,37.5,30.14,West,261,10.0,18.0,79,0.02,,,0.10,Weather View 32 v70,2013-01-29 13:02:00,
2013-01-29 05:07:00,43.6,37.5,30.14,WNW,283,6.0,18.0,79,0.03,,,0.10,Weather View 32 v70,2013-01-29 13:07:00,
2013-01-29 05:12:00,43.6,37.5,30.15,WNW,286,8.0,18.0,79,0.03,,,0.10,Weather View 32 v70,2013-01-29 13:12:00,
2013-01-29 05:17:00,43.6,37.8,30.15,SW,234,5.0,18.0,80,0.02,,,0.10,Weather View 32 v70,2013-01-29 13:17:00,
2013-01-29 05:22:00,43.5,37.7,30.16,West,265,5.0,18.0,80,0.03,,,0.11,Weather View 32 v70,2013-01-29 13:22:00,
2013-01-29 05:27:00,43.5,37.7,30.15,West,262,6.0,18.0,80,0.03,,,0.11,Weather View 32 v70,2013-01-29 13:27:00,
2013-01-29 05:32:00,43.6,37.5,30.16,WSW,246,13.0,18.0,79,0.03,,,0.11,Weather View 32 v70,2013-01-29 13:32:00,
2013-01-29 05:37:00,43.8,37.7,30.16,West,268,8.0,18.0,79,0.03,,,0.11,Weather View 32 v70,2013-01-29 13:37:00,
2013-01-29 05:42:00,43.8,37.7,30.16,West,264,7.0,18.0,79,0.02,,,0.11,Weather View 32 v70,2013-01-29 13:42:00,
2013-01-29 05:47:00,43.6,37.8,30.16,WSW,258,6.0,18.0,80,0.03,,,0.12,Weather View 32 v70,2013-01-29 13:47:00,
2013-01-29 05:52:00,43.5,37.7,30.17,West,271,5.0,18.0,80,0.03,,,0.12,Weather View 32 v70,2013-01-29 13:52:00,
2013-01-29 05:57:00,43.5,37.7,30.16,WNW,291,2.0,18.0,80,0.03,,,0.12,Weather View 32 v70,2013-01-29 13:57:00,
2013-01-29 06:05:00,43.5,37.7,30.17,West,281,7.0,17.0,80,0.03,,,0.13,Weather View 32 v70,2013-01-29 14:05:00,
2013-01-29 06:10:00,43.5,38.0,30.16,West,273,6.0,17.0,81,0.03,,,0.13,Weather View 32 v70,2013-01-29 14:10:00,
2013-01-29 06:15:00,43.3,37.9,30.16,West,267,4.0,17.0,81,0.03,,,0.13,Weather View 32 v70,2013-01-29 14:15:00,
2013-01-29 06:20:00,43.5,38.0,30.16,West,261,10.0,20.0,81,0.03,,,0.13,Weather View 32 v70,2013-01-29 14:20:00,
2013-01-29 06:25:00,43.6,38.1,30.16,WSW,248,9.0,20.0,81,0.02,,,0.13,Weather View 32 v70,2013-01-29 14:25:00,
2013-01-29 06:30:00,43.8,38.0,30.16,West,277,7.0,20.0,80,0.02,,,0.13,Weather View 32 v70,2013-01-29 14:30:00,
2013-01-29 06:35:00,43.6,37.8,30.17,WSW,250,11.0,20.0,80,0.03,,,0.14,Weather View 32 v70,2013-01-29 14:35:00,
2013-01-29 06:40:00,43.6,37.8,30.17,West,277,5.0,20.0,80,0.03,,,0.14,Weather View 32 v70,2013-01-29 14:40:00,
2013-01-29 06:45:00,43.6,37.8,30.17,SW,234,6.0,20.0,80,0.02,,,0.14,Weather View 32 v70,2013-01-29 14:45:00,
2013-01-29 06:50:00,43.9,37.8,30.17,West,268,10.0,20.0,79,0.02,,,0.14,Weather View 32 v70,2013-01-29 14:50:00,
2013-01-29 06:55:00,43.9,37.8,30.18,West,269,3.0,20.0,79,0.03,,,0.15,Weather View 32 v70,2013-01-29 14:55:00,
2013-01-29 07:00:00,43.8,38.0,30.18,WSW,243,4.0,20.0,80,0.02,,,0.15,Weather View 32 v70,2013-01-29 15:00:00,
2013-01-29 07:05:00,43.8,38.0,30.18,WSW,239,7.0,20.0,80,0.02,,,0.15,Weather View 32 v70,2013-01-29 15:05:00,
2013-01-29 07:10:00,43.9,38.1,30.18,WSW,252,10.0,20.0,80,0.02,,,0.15,Weather View 32 v70,2013-01-29 15:10:00,
2013-01-29 07:14:00,43.9,38.1,30.19,West,261,4.0,20.0,80,0.02,,,0.15,Weather View 32 v70,2013-01-29 15:14:00,
2013-01-29 07:19:00,43.8,38.3,30.19,WSW,244,5.0,18.0,81,0.02,,,0.16,Weather View 32 v70,2013-01-29 15:19:00,
2013-01-29 07:24:00,43.8,38.3,30.19,West,268,8.0,18.0,81,0.03,,,0.16,Weather View 32 v70,2013-01-29 15:24:00,
2013-01-29 07:29:00,43.8,38.3,30.19,WNW,300,8.0,17.0,81,0.03,,,0.16,Weather View 32 v70,2013-01-29 15:29:00,
2013-01-29 07:34:00,43.8,38.3,30.19,WNW,290,4.0,17.0,81,0.02,,,0.16,Weather View 32 v70,2013-01-29 15:34:00,
2013-01-29 07:39:00,44.1,38.3,30.18,WSW,250,7.0,17.0,80,0.02,,,0.16,Weather View 32 v70,2013-01-29 15:39:00,
2013-01-29 07:44:00,44.1,38.3,30.19,West,262,6.0,18.0,80,0.03,,,0.17,Weather View 32 v70,2013-01-29 15:44:00,
2013-01-29 07:49:00,44.2,38.4,30.19,WNW,291,4.0,18.0,80,0.03,,,0.17,Weather View 32 v70,2013-01-29 15:49:00,
2013-01-29 07:54:00,44.2,38.4,30.19,SW,222,2.0,18.0,80,0.02,,,0.17,Weather View 32 v70,2013-01-29 15:54:00,
2013-01-29 07:59:00,44.2,38.4,30.19,West,277,10.0,18.0,80,0.02,,,0.17,Weather View 32 v70,2013-01-29 15:59:00,
2013-01-29 08:04:00,44.2,38.4,30.20,SW,229,3.0,18.0,80,0.02,,,0.17,Weather View 32 v70,2013-01-29 16:04:00,
2013-01-29 08:09:00,44.2,38.4,30.20,WNW,292,12.0,18.0,80,0.02,,,0.18,Weather View 32 v70,2013-01-29 16:09:00,
2013-01-29 08:14:00,44.5,38.4,30.21,WNW,297,4.0,23.0,79,0.03,,,0.18,Weather View 32 v70,2013-01-29 16:14:00,
2013-01-29 08:19:00,44.3,38.5,30.20,WNW,295,5.0,23.0,80,0.03,,,0.18,Weather View 32 v70,2013-01-29 16:19:00,
2013-01-29 08:24:00,44.5,38.4,30.21,WSW,244,1.0,23.0,79,0.02,,,0.18,Weather View 32 v70,2013-01-29 16:24:00,
2013-01-29 08:29:00,44.5,38.4,30.21,WNW,292,1.0,23.0,79,0.02,,,0.18,Weather View 32 v70,2013-01-29 16:29:00,
2013-01-29 08:34:00,44.5,38.4,30.21,West,277,5.0,23.0,79,0.02,,,0.18,Weather View 32 v70,2013-01-29 16:34:00,
2013-01-29 08:39:00,44.8,38.3,30.21,West,271,4.0,23.0,78,0.02,,,0.18,Weather View 32 v70,2013-01-29 16:39:00,
2013-01-29 08:44:00,44.9,38.1,30.22,West,267,0.0,23.0,77,0.01,,,0.18,Weather View 32 v70,2013-01-29 16:44:00,
2013-01-29 08:49:00,44.9,38.1,30.22,WNW,296,1.0,23.0,77,0.01,,,0.18,Weather View 32 v70,2013-01-29 16:49:00,
2013-01-29 08:54:00,44.9,38.1,30.22,SSW,211,6.0,23.0,77,0.01,,,0.18,Weather View 32 v70,2013-01-29 16:54:00,
2013-01-29 08:59:00,44.9,38.1,30.23,WNW,296,0.0,23.0,77,0.01,,,0.18,Weather View 32 v70,2013-01-29 16:59:00,
2013-01-29 09:04:00,45.2,38.4,30.23,West,273,1.0,23.0,77,0.01,,,0.18,Weather View 32 v70,2013-01-29 17:04:00,
2013-01-29 09:09:00,45.2,38.4,30.24,West,267,2.0,23.0,77,0.01,,,0.18,Weather View 32 v70,2013-01-29 17:09:00,
2013-01-29 09:14:00,45.2,38.4,30.24,West,259,5.0,18.0,77,0.00,,,0.18,Weather View 32 v70,2013-01-29 17:14:00,
2013-01-29 09:19:00,45.4,38.6,30.25,NW,311,5.0,18.0,77,0.00,,,0.18,Weather View 32 v70,2013-01-29 17:19:00,
2013-01-29 09:24:00,45.5,38.7,30.25,West,262,4.0,17.0,77,0.00,,,0.18,Weather View 32 v70,2013-01-29 17:24:00,
2013-01-29 09:29:00,45.5,38.7,30.25,NW,304,2.0,17.0,77,0.00,,,0.18,Weather View 32 v70,2013-01-29 17:29:00,
2013-01-29 09:34:00,45.5,38.7,30.26,West,268,0.0,17.0,77,0.00,,,0.18,Weather View 32 v70,2013-01-29 17:34:00,
2013-01-29 09:39:00,45.7,38.9,30.26,West,269,7.0,13.0,77,0.00,,,0.18,Weather View 32 v70,2013-01-29 17:39:00,
2013-01-29 09:44:00,45.7,38.6,30.27,West,266,1.0,15.0,76,0.00,,,0.18,Weather View 32 v70,2013-01-29 17:44:00,
2013-01-29 09:49:00,45.7,38.9,30.27,WNW,294,0.0,15.0,77,0.00,,,0.18,Weather View 32 v70,2013-01-29 17:49:00,
2013-01-29 09:54:00,45.8,38.7,30.27,WSW,253,3.0,15.0,76,0.00,,,0.18,Weather View 32 v70,2013-01-29 17:54:00,
2013-01-29 09:59:00,46.0,38.8,30.28,West,267,0.0,15.0,76,0.00,,,0.18,Weather View 32 v70,2013-01-29 17:59:00,
2013-01-29 10:04:00,46.0,38.5,30.28,West,259,2.0,15.0,75,0.00,,,0.18,Weather View 32 v70,2013-01-29 18:04:00,
2013-01-29 10:09:00,46.0,38.8,30.28,WSW,247,5.0,15.0,76,0.00,,,0.18,Weather View 32 v70,2013-01-29 18:09:00,
2013-01-29 10:14:00,46.0,38.5,30.29,West,279,0.0,15.0,75,0.00,,,0.18,Weather View 32 v70,2013-01-29 18:14:00,
2013-01-29 10:19:00,46.0,38.5,30.28,West,264,6.0,15.0,75,0.00,,,0.18,Weather View 32 v70,2013-01-29 18:19:00,
2013-01-29 10:24:00,46.0,38.8,30.28,WSW,250,1.0,15.0,76,0.00,,,0.18,Weather View 32 v70,2013-01-29 18:24:00,
2013-01-29 10:29:00,46.0,38.5,30.28,WNW,290,1.0,15.0,75,0.00,,,0.18,Weather View 32 v70,2013-01-29 18:29:00,
2013-01-29 10:34:00,46.0,38.5,30.29,NW,311,4.0,15.0,75,0.00,,,0.18,Weather View 32 v70,2013-01-29 18:34:00,
2013-01-29 10:39:00,46.1,38.6,30.28,WNW,285,3.0,15.0,75,0.00,,,0.18,Weather View 32 v70,2013-01-29 18:39:00,
2013-01-29 10:44:00,46.2,38.4,30.28,West,271,3.0,15.0,74,0.00,,,0.18,Weather View 32 v70,2013-01-29 18:44:00,
2013-01-29 10:49:00,46.2,38.4,30.29,WNW,296,2.0,15.0,74,0.00,,,0.18,Weather View 32 v70,2013-01-29 18:49:00,
2013-01-29 10:54:00,46.4,38.9,30.28,NW,308,0.0,15.0,75,0.00,,,0.18,Weather View 32 v70,2013-01-29 18:54:00,
2013-01-29 10:59:00,46.4,38.6,30.29,West,271,0.0,15.0,74,0.00,,,0.18,Weather View 32 v70,2013-01-29 18:59:00,
2013-01-29 11:04:00,46.5,38.6,30.29,WNW,282,5.0,15.0,74,0.00,,,0.18,Weather View 32 v70,2013-01-29 19:04:00,
2013-01-29 11:09:00,46.5,38.3,30.28,SSW,205,8.0,15.0,73,0.00,,,0.18,Weather View 32 v70,2013-01-29 19:09:00,
2013-01-29 11:14:00,46.7,38.5,30.28,West,277,1.0,15.0,73,0.00,,,0.18,Weather View 32 v70,2013-01-29 19:14:00,
2013-01-29 11:19:00,46.7,38.8,30.29,WNW,288,2.0,15.0,74,0.00,,,0.18,Weather View 32 v70,2013-01-29 19:19:00,
2013-01-29 11:24:00,46.7,38.8,30.29,WNW,283,3.0,15.0,74,0.00,,,0.18,Weather View 32 v70,2013-01-29 19:24:00,
2013-01-29 11:29:00,46.7,38.5,30.29,WNW,300,12.0,15.0,73,0.00,,,0.18,Weather View 32 v70,2013-01-29 19:29:00,
2013-01-29 11:34:00,46.8,38.6,30.29,West,271,4.0,15.0,73,0.00,,,0.18,Weather View 32 v70,2013-01-29 19:34:00,
2013-01-29 11:39:00,46.8,38.6,30.29,West,279,3.0,15.0,73,0.00,,,0.18,Weather View 32 v70,2013-01-29 19:39:00,
2013-01-29 11:44:00,46.8,38.6,30.29,WNW,283,1.0,14.0,73,0.00,,,0.18,Weather View 32 v70,2013-01-29 19:44:00,
2013-01-29 11:49:00,47.0,38.8,30.30,WNW,293,6.0,14.0,73,0.00,,,0.18,Weather View 32 v70,2013-01-29 19:49:00,
2013-01-29 11:54:00,47.0,38.8,30.30,West,264,6.0,14.0,73,0.00,,,0.18,Weather View 32 v70,2013-01-29 19:54:00,
2013-01-29 11:57:00,47.0,38.8,30.30,WNW,290,2.0,14.0,73,0.00,,,0.18,Weather View 32 v70,2013-01-29 19:57:00,
2013-01-29 12:02:00,47.0,38.8,30.30,WNW,289,5.0,14.0,73,0.00,,,0.18,Weather View 32 v70,2013-01-29 20:02:00,
2013-01-29 12:07:00,47.1,38.9,30.30,WSW,252,9.0,14.0,73,0.00,,,0.18,Weather View 32 v70,2013-01-29 20:07:00,
2013-01-29 12:12:00,47.1,38.9,30.31,West,275,4.0,14.0,73,0.00,,,0.18,Weather View 32 v70,2013-01-29 20:12:00,
2013-01-29 12:17:00,47.1,38.9,30.30,West,263,5.0,14.0,73,0.00,,,0.18,Weather View 32 v70,2013-01-29 20:17:00,
2013-01-29 12:25:00,47.0,39.1,30.31,West,270,7.0,14.0,74,0.00,,,0.18,Weather View 32 v70,2013-01-29 20:25:00,
2013-01-29 12:30:00,47.0,39.1,30.30,West,266,6.0,14.0,74,0.00,,,0.18,Weather View 32 v70,2013-01-29 20:30:00,
2013-01-29 12:35:00,46.8,39.3,30.30,West,262,3.0,14.0,75,0.00,,,0.18,Weather View 32 v70,2013-01-29 20:35:00,
2013-01-29 12:40:00,46.8,39.6,30.30,WNW,290,1.0,14.0,76,0.00,,,0.18,Weather View 32 v70,2013-01-29 20:40:00,
2013-01-29 12:45:00,46.8,39.6,30.30,West,267,0.0,14.0,76,0.00,,,0.18,Weather View 32 v70,2013-01-29 20:45:00,
2013-01-29 12:50:00,46.8,39.3,30.31,West,275,2.0,14.0,75,0.00,,,0.18,Weather View 32 v70,2013-01-29 20:50:00,
2013-01-29 12:55:00,47.0,39.8,30.30,WNW,283,1.0,14.0,76,0.00,,,0.18,Weather View 32 v70,2013-01-29 20:55:00,
2013-01-29 13:00:00,47.1,39.6,30.30,WNW,295,1.0,14.0,75,0.00,,,0.18,Weather View 32 v70,2013-01-29 21:00:00,
2013-01-29 13:04:00,47.3,39.4,30.30,West,279,6.0,14.0,74,0.00,,,0.18,Weather View 32 v70,2013-01-29 21:04:00,
2013-01-29 13:09:00,47.4,39.5,30.30,West,279,7.0,14.0,74,0.00,,,0.18,Weather View 32 v70,2013-01-29 21:09:00,
2013-01-29 13:14:00,47.4,39.9,30.31,West,275,7.0,14.0,75,0.00,,,0.18,Weather View 32 v70,2013-01-29 21:14:00,
2013-01-29 13:19:00,47.4,39.9,30.31,WNW,300,9.0,14.0,75,0.00,,,0.18,Weather View 32 v70,2013-01-29 21:19:00,
2013-01-29 13:24:00,47.4,39.9,30.30,WSW,257,8.0,18.0,75,0.00,,,0.18,Weather View 32 v70,2013-01-29 21:24:00,
2013-01-29 13:29:00,47.4,39.5,30.31,West,272,8.0,18.0,74,0.00,,,0.18,Weather View 32 v70,2013-01-29 21:29:00,
2013-01-29 13:34:00,47.4,39.5,30.31,West,275,8.0,18.0,74,0.00,,,0.18,Weather View 32 v70,2013-01-29 21:34:00,
2013-01-29 13:39:00,47.4,39.5,30.31,West,262,3.0,23.0,74,0.00,,,0.18,Weather View 32 v70,2013-01-29 21:39:00,
2013-01-29 13:44:00,47.6,39.4,30.31,West,273,4.0,23.0,73,0.00,,,0.18,Weather View 32 v70,2013-01-29 21:44:00,
2013-01-29 13:49:00,47.6,39.7,30.32,WSW,251,5.0,23.0,74,0.00,,,0.18,Weather View 32 v70,2013-01-29 21:49:00,
2013-01-29 13:54:00,47.6,39.7,30.32,West,265,3.0,23.0,74,0.00,,,0.18,Weather View 32 v70,2013-01-29 21:54:00,
2013-01-29 13:59:00,47.6,39.7,30.32,WSW,243,5.0,23.0,74,0.00,,,0.18,Weather View 32 v70,2013-01-29 21:59:00,
2013-01-29 14:04:00,47.6,39.7,30.32,WNW,293,8.0,23.0,74,0.00,,,0.18,Weather View 32 v70,2013-01-29 22:04:00,
2013-01-29 14:09:00,47.6,39.7,30.32,West,279,4.0,23.0,74,0.00,,,0.18,Weather View 32 v70,2013-01-29 22:09:00,
2013-01-29 14:14:00,47.6,39.7,30.32,NW,304,8.0,23.0,74,0.00,,,0.18,Weather View 32 v70,2013-01-29 22:14:00,
2013-01-29 14:19:00,47.6,39.7,30.32,West,275,1.0,23.0,74,0.00,,,0.18,Weather View 32 v70,2013-01-29 22:19:00,
2013-01-29 14:24:00,47.6,39.4,30.32,WSW,256,6.0,23.0,73,0.00,,,0.18,Weather View 32 v70,2013-01-29 22:24:00,
2013-01-29 14:29:00,47.7,39.5,30.32,West,267,3.0,23.0,73,0.00,,,0.18,Weather View 32 v70,2013-01-29 22:29:00,
2013-01-29 14:34:00,47.7,39.5,30.32,WSW,258,5.0,23.0,73,0.00,,,0.18,Weather View 32 v70,2013-01-29 22:34:00,
2013-01-29 14:39:00,47.7,39.5,30.32,WSW,249,12.0,16.0,73,0.00,,,0.18,Weather View 32 v70,2013-01-29 22:39:00,
2013-01-29 14:44:00,47.9,39.6,30.32,West,261,11.0,16.0,73,0.00,,,0.18,Weather View 32 v70,2013-01-29 22:44:00,
2013-01-29 14:49:00,48.0,39.4,30.32,WNW,292,3.0,16.0,72,0.00,,,0.18,Weather View 32 v70,2013-01-29 22:49:00,
2013-01-29 14:54:00,48.0,39.4,30.32,SW,234,8.0,16.0,72,0.00,,,0.18,Weather View 32 v70,2013-01-29 22:54:00,
2013-01-29 14:59:00,48.2,39.6,30.32,WNW,288,4.0,16.0,72,0.00,,,0.18,Weather View 32 v70,2013-01-29 22:59:00,
2013-01-29 15:04:00,48.3,39.3,30.32,NW,306,6.0,18.0,71,0.00,,,0.18,Weather View 32 v70,2013-01-29 23:04:00,
2013-01-29 15:09:00,48.5,39.1,30.33,West,269,3.0,18.0,70,0.00,,,0.18,Weather View 32 v70,2013-01-29 23:09:00,
2013-01-29 15:14:00,48.6,39.2,30.33,West,281,4.0,18.0,70,0.00,,,0.18,Weather View 32 v70,2013-01-29 23:14:00,
2013-01-29 15:19:00,48.9,39.5,30.33,NW,309,4.0,18.0,70,0.00,,,0.18,Weather View 32 v70,2013-01-29 23:19:00,
2013-01-29 15:24:00,48.9,39.5,30.33,West,279,15.0,19.0,70,0.00,,,0.18,Weather View 32 v70,2013-01-29 23:24:00,
2013-01-29 15:29:00,49.2,39.8,30.33,West,273,4.0,19.0,70,0.00,,,0.18,Weather View 32 v70,2013-01-29 23:29:00,
2013-01-29 15:34:00,48.9,39.5,30.33,West,259,4.0,19.0,70,0.00,,,0.18,Weather View 32 v70,2013-01-29 23:34:00,
2013-01-29 15:39:00,48.9,39.9,30.33,NW,319,5.0,19.0,71,0.00,,,0.18,Weather View 32 v70,2013-01-29 23:39:00,
2013-01-29 15:44:00,48.8,39.8,30.33,WNW,300,7.0,19.0,71,0.00,,,0.18,Weather View 32 v70,2013-01-29 23:44:00,
2013-01-29 15:49:00,48.8,40.2,30.33,West,275,14.0,19.0,72,0.00,,,0.18,Weather View 32 v70,2013-01-29 23:49:00,
2013-01-29 15:54:00,48.6,40.0,30.33,SW,223,8.0,19.0,72,0.00,,,0.18,Weather View 32 v70,2013-01-29 23:54:00,
2013-01-29 15:59:00,48.5,39.5,30.33,WNW,287,5.0,19.0,71,0.00,,,0.18,Weather View 32 v70,2013-01-29 23:59:00,
2013-01-29 16:04:00,48.6,39.2,30.33,WSW,252,5.0,19.0,70,0.00,,,0.18,Weather View 32 v70,2013-01-30 00:04:00,
2013-01-29 16:09:00,48.5,39.5,30.33,SW,229,4.0,19.0,71,0.00,,,0.18,Weather View 32 v70,2013-01-30 00:09:00,
2013-01-29 16:14:00,48.3,39.3,30.33,West,273,5.0,19.0,71,0.00,,,0.18,Weather View 32 v70,2013-01-30 00:14:00,
2013-01-29 16:19:00,48.3,39.3,30.33,WNW,294,2.0,19.0,71,0.00,,,0.18,Weather View 32 v70,2013-01-30 00:19:00,
2013-01-29 16:24:00,48.2,39.6,30.33,West,265,3.0,19.0,72,0.00,,,0.18,Weather View 32 v70,2013-01-30 00:24:00,
2013-01-29 16:29:00,48.2,39.6,30.33,West,259,6.0,19.0,72,0.00,,,0.18,Weather View 32 v70,2013-01-30 00:29:00,
2013-01-29 16:34:00,48.2,39.2,30.33,WSW,250,8.0,19.0,71,0.00,,,0.18,Weather View 32 v70,2013-01-30 00:34:00,
2013-01-29 16:39:00,48.2,39.6,30.34,WNW,296,4.0,19.0,72,0.00,,,0.18,Weather View 32 v70,2013-01-30 00:39:00,
2013-01-29 16:44:00,48.3,39.3,30.34,NW,312,4.0,20.0,71,0.00,,,0.18,Weather View 32 v70,2013-01-30 00:44:00,
2013-01-29 16:49:00,48.2,39.2,30.34,WNW,296,6.0,20.0,71,0.00,,,0.18,Weather View 32 v70,2013-01-30 00:49:00,
2013-01-29 16:54:00,48.0,39.4,30.34,WSW,249,5.0,20.0,72,0.00,,,0.18,Weather View 32 v70,2013-01-30 00:54:00,
2013-01-29 16:59:00,47.9,39.6,30.34,WNW,292,3.0,20.0,73,0.00,,,0.18,Weather View 32 v70,2013-01-30 00:59:00,
2013-01-29 17:04:00,47.7,39.5,30.34,WNW,298,3.0,20.0,73,0.00,,,0.18,Weather View 32 v70,2013-01-30 01:04:00,
2013-01-29 17:09:00,47.7,39.5,30.35,WNW,294,4.0,29.0,73,0.00,,,0.18,Weather View 32 v70,2013-01-30 01:09:00,
2013-01-29 17:14:00,47.6,39.4,30.35,West,259,9.0,29.0,73,0.00,,,0.18,Weather View 32 v70,2013-01-30 01:14:00,
2013-01-29 17:19:00,47.6,39.4,30.35,West,275,4.0,29.0,73,0.00,,,0.18,Weather View 32 v70,2013-01-30 01:19:00,
2013-01-29 17:24:00,47.4,39.2,30.36,NW,323,5.0,29.0,73,0.00,,,0.18,Weather View 32 v70,2013-01-30 01:24:00,
2013-01-29 17:29:00,47.4,39.2,30.35,West,267,4.0,29.0,73,0.00,,,0.18,Weather View 32 v70,2013-01-30 01:29:00,
2013-01-29 17:34:00,47.4,39.2,30.36,WNW,288,2.0,29.0,73,0.00,,,0.18,Weather View 32 v70,2013-01-30 01:34:00,
2013-01-29 17:39:00,47.3,39.4,30.36,WNW,293,9.0,29.0,74,0.00,,,0.18,Weather View 32 v70,2013-01-30 01:39:00,
2013-01-29 17:44:00,47.1,39.2,30.36,West,260,1.0,29.0,74,0.00,,,0.18,Weather View 32 v70,2013-01-30 01:44:00,
2013-01-29 17:49:00,47.0,39.1,30.36,SSW,212,7.0,29.0,74,0.00,,,0.18,Weather View 32 v70,2013-01-30 01:49:00,
2013-01-29 17:54:00,46.8,39.3,30.36,WNW,303,14.0,29.0,75,0.00,,,0.18,Weather View 32 v70,2013-01-30 01:54:00,
2013-01-29 17:59:00,46.7,39.2,30.36,WNW,301,2.0,29.0,75,0.00,,,0.18,Weather View 32 v70,2013-01-30 01:59:00,
2013-01-29 18:04:00,46.7,39.5,30.37,NW,325,12.0,29.0,76,0.00,,,0.18,Weather View 32 v70,2013-01-30 02:04:00,
2013-01-29 18:09:00,46.7,39.5,30.37,NW,304,9.0,20.0,76,0.00,,,0.18,Weather View 32 v70,2013-01-30 02:09:00,
2013-01-29 18:14:00,46.5,39.3,30.36,SW,215,3.0,20.0,76,0.00,,,0.18,Weather View 32 v70,2013-01-30 02:14:00,
2013-01-29 18:19:00,46.5,39.3,30.37,WNW,300,2.0,20.0,76,0.00,,,0.18,Weather View 32 v70,2013-01-30 02:19:00,
2013-01-29 18:24:00,46.4,39.6,30.37,WNW,284,6.0,20.0,77,0.00,,,0.18,Weather View 32 v70,2013-01-30 02:24:00,
2013-01-29 18:29:00,46.4,39.6,30.37,SW,236,7.0,20.0,77,0.00,,,0.18,Weather View 32 v70,2013-01-30 02:29:00,
2013-01-29 18:34:00,46.4,39.6,30.37,WNW,302,9.0,19.0,77,0.00,,,0.18,Weather View 32 v70,2013-01-30 02:34:00,
2013-01-29 18:39:00,46.5,39.3,30.37,West,277,5.0,19.0,76,0.00,,,0.18,Weather View 32 v70,2013-01-30 02:39:00,
2013-01-29 18:44:00,46.7,39.5,30.37,West,267,4.0,19.0,76,0.00,,,0.18,Weather View 32 v70,2013-01-30 02:44:00,
2013-01-29 18:49:00,46.5,39.3,30.37,WNW,285,7.0,19.0,76,0.00,,,0.18,Weather View 32 v70,2013-01-30 02:49:00,
2013-01-29 18:54:00,46.5,39.3,30.37,WNW,286,6.0,19.0,76,0.00,,,0.18,Weather View 32 v70,2013-01-30 02:54:00,
2013-01-29 18:59:00,46.7,39.5,30.37,SW,227,17.0,19.0,76,0.00,,,0.18,Weather View 32 v70,2013-01-30 02:59:00,
2013-01-29 19:04:00,46.7,39.5,30.37,WNW,286,3.0,19.0,76,0.00,,,0.18,Weather View 32 v70,2013-01-30 03:04:00,
2013-01-29 19:09:00,46.5,39.7,30.37,West,259,0.0,19.0,77,0.00,,,0.18,Weather View 32 v70,2013-01-30 03:09:00,
2013-01-29 19:14:00,46.4,39.6,30.37,West,275,5.0,19.0,77,0.00,,,0.18,Weather View 32 v70,2013-01-30 03:14:00,
2013-01-29 19:19:00,46.4,39.6,30.38,West,261,12.0,19.0,77,0.00,,,0.18,Weather View 32 v70,2013-01-30 03:19:00,
2013-01-29 19:24:00,46.4,39.6,30.37,NNW,329,4.0,19.0,77,0.00,,,0.18,Weather View 32 v70,2013-01-30 03:24:00,
2013-01-29 19:29:00,46.4,39.6,30.38,WNW,290,9.0,18.0,77,0.00,,,0.18,Weather View 32 v70,2013-01-30 03:29:00,
2013-01-29 19:34:00,46.5,39.7,30.38,West,263,12.0,18.0,77,0.00,,,0.18,Weather View 32 v70,2013-01-30 03:34:00,
2013-01-29 19:39:00,46.5,39.7,30.37,WSW,247,6.0,19.0,77,0.00,,,0.18,Weather View 32 v70,2013-01-30 03:39:00,
2013-01-29 19:44:00,46.4,39.6,30.37,WSW,242,13.0,19.0,77,0.00,,,0.18,Weather View 32 v70,2013-01-30 03:44:00,
2013-01-29 19:49:00,46.4,39.6,30.37,WSW,251,5.0,19.0,77,0.00,,,0.18,Weather View 32 v70,2013-01-30 03:49:00,
2013-01-29 19:54:00,46.4,39.6,30.38,WNW,290,9.0,19.0,77,0.00,,,0.18,Weather View 32 v70,2013-01-30 03:54:00,
2013-01-29 19:59:00,46.4,39.6,30.38,West,275,15.0,19.0,77,0.00,,,0.18,Weather View 32 v70,2013-01-30 03:59:00,
2013-01-29 20:04:00,46.5,39.7,30.37,WNW,290,3.0,19.0,77,0.00,,,0.18,Weather View 32 v70,2013-01-30 04:04:00,
2013-01-29 20:09:00,46.5,39.7,30.37,WSW,249,4.0,19.0,77,0.00,,,0.18,Weather View 32 v70,2013-01-30 04:09:00,
2013-01-29 20:14:00,46.7,39.5,30.38,WNW,285,0.0,19.0,76,0.00,,,0.18,Weather View 32 v70,2013-01-30 04:14:00,
2013-01-29 20:19:00,46.7,39.5,30.38,North,0,4.0,19.0,76,0.00,,,0.18,Weather View 32 v70,2013-01-30 04:19:00,
2013-01-29 20:24:00,46.7,39.5,30.38,West,279,3.0,19.0,76,0.00,,,0.18,Weather View 32 v70,2013-01-30 04:24:00,
2013-01-29 20:29:00,46.5,39.3,30.38,West,277,3.0,19.0,76,0.00,,,0.18,Weather View 32 v70,2013-01-30 04:29:00,
2013-01-29 20:34:00,46.5,39.3,30.38,West,268,3.0,19.0,76,0.00,,,0.18,Weather View 32 v70,2013-01-30 04:34:00,
2013-01-29 20:39:00,46.5,39.3,30.37,NW,306,1.0,17.0,76,0.00,,,0.18,Weather View 32 v70,2013-01-30 04:39:00,
2013-01-29 20:44:00,46.5,39.3,30.37,West,271,2.0,16.0,76,0.00,,,0.18,Weather View 32 v70,2013-01-30 04:44:00,
2013-01-29 20:49:00,46.5,39.7,30.37,West,260,6.0,16.0,77,0.00,,,0.18,Weather View 32 v70,2013-01-30 04:49:00,
2013-01-29 20:54:00,46.5,39.7,30.37,West,262,13.0,18.0,77,0.00,,,0.18,Weather View 32 v70,2013-01-30 04:54:00,
2013-01-29 20:59:00,46.5,39.3,30.37,West,277,3.0,18.0,76,0.00,,,0.18,Weather View 32 v70,2013-01-30 04:59:00,
2013-01-29 21:00:00,46.5,39.7,30.37,West,281,5.0,18.0,77,0.00,,,0.18,Weather View 32 v70,2013-01-30 05:00:00,
2013-01-29 21:03:00,46.5,39.7,30.37,West,266,1.0,18.0,77,0.00,,,0.18,Weather View 32 v70,2013-01-30 05:03:00,
2013-01-29 21:08:00,46.5,39.3,30.37,West,277,2.0,18.0,76,0.00,,,0.18,Weather View 32 v70,2013-01-30 05:08:00,
2013-01-29 21:13:00,46.7,39.5,30.37,West,266,10.0,18.0,76,0.00,,,0.18,Weather View 32 v70,2013-01-30 05:13:00,
2013-01-29 21:18:00,46.7,39.5,30.36,WSW,258,3.0,20.0,76,0.00,,,0.18,Weather View 32 v70,2013-01-30 05:18:00,
2013-01-29 21:23:00,46.7,39.5,30.36,SW,234,10.0,20.0,76,0.00,,,0.18,Weather View 32 v70,2013-01-30 05:23:00,
2013-01-29 21:28:00,46.7,39.5,30.36,WSW,253,5.0,20.0,76,0.00,,,0.18,Weather View 32 v70,2013-01-30 05:28:00,
2013-01-29 21:33:00,46.7,39.5,30.35,West,265,8.0,20.0,76,0.00,,,0.18,Weather View 32 v70,2013-01-30 05:33:00,
2013-01-29 21:38:00,46.5,39.3,30.36,West,265,4.0,20.0,76,0.00,,,0.18,Weather View 32 v70,2013-01-30 05:38:00,
2013-01-29 21:43:00,46.5,39.3,30.36,WNW,287,14.0,20.0,76,0.00,,,0.18,Weather View 32 v70,2013-01-30 05:43:00,
2013-01-29 21:48:00,46.7,39.2,30.35,West,263,0.0,20.0,75,0.00,,,0.18,Weather View 32 v70,2013-01-30 05:48:00,
2013-01-29 21:53:00,46.5,39.0,30.34,West,262,5.0,20.0,75,0.00,,,0.18,Weather View 32 v70,2013-01-30 05:53:00,
2013-01-29 21:58:00,46.5,38.6,30.34,WSW,254,4.0,20.0,74,0.00,,,0.18,Weather View 32 v70,2013-01-30 05:58:00,
2013-01-29 22:03:00,46.5,38.6,30.34,West,265,4.0,20.0,74,0.00,,,0.18,Weather View 32 v70,2013-01-30 06:03:00,
2013-01-29 22:08:00,46.5,39.0,30.34,WSW,244,2.0,20.0,75,0.00,,,0.18,Weather View 32 v70,2013-01-30 06:08:00,
2013-01-29 22:13:00,46.4,38.9,30.34,NNW,327,10.0,20.0,75,0.00,,,0.18,Weather View 32 v70,2013-01-30 06:13:00,
2013-01-29 22:18:00,46.5,38.6,30.34,West,273,14.0,20.0,74,0.00,,,0.18,Weather View 32 v70,2013-01-30 06:18:00,
2013-01-29 22:23:00,46.8,38.6,30.34,West,259,8.0,20.0,73,0.00,,,0.18,Weather View 32 v70,2013-01-30 06:23:00,
2013-01-29 22:28:00,46.8,38.6,30.34,SW,229,2.0,20.0,73,0.00,,,0.18,Weather View 32 v70,2013-01-30 06:28:00,
2013-01-29 22:33:00,46.8,38.6,30.34,West,269,2.0,20.0,73,0.00,,,0.18,Weather View 32 v70,2013-01-30 06:33:00,
2013-01-29 22:38:00,46.7,38.5,30.34,West,277,1.0,20.0,73,0.00,,,0.18,Weather View 32 v70,2013-01-30 06:38:00,
2013-01-29 22:43:00,46.5,38.6,30.35,West,259,1.0,20.0,74,0.00,,,0.18,Weather View 32 v70,2013-01-30 06:43:00,
2013-01-29 22:48:00,46.4,38.9,30.35,West,281,2.0,20.0,75,0.00,,,0.18,Weather View 32 v70,2013-01-30 06:48:00,
2013-01-29 22:53:00,46.2,39.0,30.35,WSW,257,2.0,20.0,76,0.00,,,0.18,Weather View 32 v70,2013-01-30 06:53:00,
2013-01-29 22:58:00,46.1,38.9,30.35,WNW,283,1.0,20.0,76,0.00,,,0.18,Weather View 32 v70,2013-01-30 06:58:00,
2013-01-29 23:03:00,46.1,38.6,30.35,West,281,2.0,20.0,75,0.00,,,0.18,Weather View 32 v70,2013-01-30 07:03:00,
2013-01-29 23:08:00,46.1,38.9,30.35,South,185,2.0,20.0,76,0.00,,,0.18,Weather View 32 v70,2013-01-30 07:08:00,
2013-01-29 23:13:00,46.1,38.9,30.36,West,271,6.0,20.0,76,0.00,,,0.18,Weather View 32 v70,2013-01-30 07:13:00,
2013-01-29 23:18:00,46.1,38.6,30.36,West,272,9.0,20.0,75,0.00,,,0.18,Weather View 32 v70,2013-01-30 07:18:00,
2013-01-29 23:23:00,46.0,38.8,30.35,WSW,249,1.0,14.0,76,0.00,,,0.18,Weather View 32 v70,2013-01-30 07:23:00,
2013-01-29 23:28:00,45.8,39.0,30.36,West,262,3.0,14.0,77,0.00,,,0.18,Weather View 32 v70,2013-01-30 07:28:00,
2013-01-29 23:33:00,45.7,38.9,30.36,West,267,1.0,14.0,77,0.00,,,0.18,Weather View 32 v70,2013-01-30 07:33:00,
2013-01-29 23:38:00,45.7,38.6,30.35,WSW,240,7.0,14.0,76,0.00,,,0.18,Weather View 32 v70,2013-01-30 07:38:00,
2013-01-29 23:43:00,45.7,38.9,30.36,West,271,5.0,14.0,77,0.00,,,0.18,Weather View 32 v70,2013-01-30 07:43:00,
2013-01-29 23:48:00,45.5,38.7,30.36,West,274,3.0,14.0,77,0.00,,,0.18,Weather View 32 v70,2013-01-30 07:48:00,
2013-01-29 23:53:00,45.4,38.9,30.36,WNW,296,6.0,14.0,78,0.00,,,0.18,Weather View 32 v70,2013-01-30 07:53:00,
2013-01-29 23:58:00,45.1,39.0,30.36,West,259,0.0,14.0,79,-0.18,,,0.00,Weather View 32 v70,2013-01-30 07:58:00,